Regional Weather Roundup
Issued by NWS Sioux Falls, SD

Home | Current Version | Previous Version | Graphics & Text | Print | Product List | Glossary Off
Versions: 1 2 3 4 5 6 7 8 9 10 11 12 13 14 15 16 17 18 19 20 21 22 23 24 25 26 27 28 29 30 31 32 33 34 35 36 37 38 39 40 41 42 43 44 45 46 47 48 49 50

000
ASUS43 KFSD 280802
RWRFSD

WEATHER ROUNDUP FOR SE SOUTH DAKOTA/SW MINNESOTA/NW IOWA
NATIONAL WEATHER SERVICE SIOUX FALLS SD
300 AM CDT THU APR 28 2016

NOTE: "FAIR" INDICATES FEW OR NO CLOUDS BELOW 12,000 FEET WITH NO
SIGNIFICANT WEATHER AND OR OBSTRUCTIONS TO VISIBILITY.


SDZ038>040-050-052>070-280900-
SOUTHEAST SOUTH DAKOTA

CITY           SKY/WX    TMP DP  RH WIND       PRES   REMARKS
BROOKINGS      CLOUDY    39  37  92 NE17      29.81S
CHAMBERLAIN    NOT AVBL
HURON          LGT RAIN  37  36  96 N13       29.87R
MADISON        LGT RAIN  37  37 100 NE17      29.80S
MITCHELL       CLOUDY    42  41  96 N13       29.83S FOG
SIOUX FALLS    LGT RAIN  41  38  89 NE14      29.77R
WINNER         LGT RAIN  39  36  89 N12       29.86R FOG
YANKTON        CLOUDY    43  39  87 N8        29.76R
$$

MNZ071-072-080-081-089-090-097-098-280900-
SOUTHWEST MINNESOTA

CITY           SKY/WX    TMP DP  RH WIND       PRES   REMARKS
FAIRMONT       CLOUDY    39  32  75 NE14      29.77S
JACKSON        LGT SNOW  39  37  93 NE17      29.77S
LUVERNE        LGT RAIN  39  36  87 NE15G21   29.77S
MARSHALL       LGT RAIN  40  38  93 E17       29.84S
MONTEVIDEO     CLOUDY    39  36  87 E13       29.90R
PIPESTONE      LGT RAIN  39  37  93 E13G22    29.78R
REDWOOD FALLS  RAIN      39  37  92 E10       29.85R FOG
TRACY          LGT RAIN  40  39  99 NE13G20   29.83R
WINDOM         RAIN      39  39 100 NE10G18   29.79R
WORTHINGTON    LGT RAIN  39  38  96 NE18      29.77S
$$

IAZ001>003-012>014-020>022-031-032-NEZ013-014-SDZ071-280900-
NORTHWEST IOWA

CITY           SKY/WX    TMP DP  RH WIND       PRES   REMARKS
DENISON        CLOUDY    46  46 100 CALM      29.63R
ESTHERVILLE    LGT RAIN  40  39  97 NE14      29.75S FOG
SIOUX CITY     LGT RAIN  44  40  85 NE10      29.69R
SPENCER        LGT RAIN  40  38  93 NE21      29.73S FOG
STORM LAKE     CLOUDY    41  41 100 NE22      29.68R FOG
$$

ABBREVIATIONS USED IN REMARKS
   TC - TEMPERATURE IN CELSIUS
  WCI - WIND CHILL INDEX
   HX - HEAT INDEX
  VSB - VISIBILITY





USA.gov is the U.S. government's official web portal to all federal, state and local government web resources and services.